TimeHST,TemperatureF,Dew PointF,Humidity,Sea Level PressureIn,VisibilityMPH,Wind Direction,Wind SpeedMPH,Gust SpeedMPH,PrecipitationIn,Events,Conditions,WindDirDegrees,DateUTC
12:53 AM,66.9,60.1,79,30.08,10.0,NW,5.8,-,N/A,,Partly Cloudy,320,2013-03-13 10:53:00
1:53 AM,66.0,60.1,81,30.05,10.0,NNW,3.5,-,N/A,,Partly Cloudy,340,2013-03-13 11:53:00
2:53 AM,64.9,61.0,87,30.02,10.0,NNW,3.5,-,N/A,,Partly Cloudy,340,2013-03-13 12:53:00
3:53 AM,64.9,59.0,81,30.03,10.0,NNW,5.8,-,N/A,,Partly Cloudy,330,2013-03-13 13:53:00
4:53 AM,64.0,60.1,87,30.03,10.0,NNW,6.9,-,N/A,,Partly Cloudy,340,2013-03-13 14:53:00
5:53 AM,64.0,60.1,87,30.04,10.0,NNW,3.5,-,N/A,,Partly Cloudy,330,2013-03-13 15:53:00
6:53 AM,64.9,60.1,84,30.06,10.0,NW,6.9,-,N/A,,Partly Cloudy,320,2013-03-13 16:53:00
7:53 AM,68.0,61.0,78,30.08,10.0,NNW,4.6,-,N/A,,Scattered Clouds,330,2013-03-13 17:53:00
8:53 AM,73.0,61.0,66,30.10,10.0,Calm,Calm,-,N/A,,Scattered Clouds,0,2013-03-13 18:53:00
9:53 AM,73.9,60.1,62,30.10,10.0,Variable,4.6,16.1,N/A,,Scattered Clouds,0,2013-03-13 19:53:00
10:53 AM,77.0,59.0,54,30.08,10.0,NNE,8.1,-,N/A,,Scattered Clouds,20,2013-03-13 20:53:00
11:53 AM,78.1,57.9,50,30.06,10.0,NE,5.8,17.3,N/A,,Scattered Clouds,50,2013-03-13 21:53:00
12:53 PM,78.1,57.9,50,30.04,10.0,Variable,4.6,-,N/A,,Mostly Cloudy,0,2013-03-13 22:53:00
1:53 PM,77.0,60.1,56,30.02,10.0,SSW,6.9,-,N/A,,Mostly Cloudy,200,2013-03-13 23:53:00
2:53 PM,77.0,59.0,54,30.00,10.0,NNE,8.1,-,N/A,,Mostly Cloudy,20,2013-03-14 00:53:00
3:53 PM,75.9,59.0,56,30.00,10.0,NNE,6.9,-,N/A,,Mostly Cloudy,30,2013-03-14 01:53:00
4:53 PM,75.0,59.0,57,30.01,10.0,NNE,6.9,-,N/A,,Mostly Cloudy,20,2013-03-14 02:53:00
5:53 PM,73.9,60.1,62,30.03,10.0,NE,6.9,-,N/A,,Mostly Cloudy,40,2013-03-14 03:53:00
6:53 PM,72.0,60.1,66,30.04,10.0,NNE,5.8,-,N/A,,Scattered Clouds,30,2013-03-14 04:53:00
7:53 PM,71.1,60.1,68,30.06,10.0,ENE,4.6,-,N/A,,Scattered Clouds,60,2013-03-14 05:53:00
8:53 PM,71.1,60.1,68,30.07,10.0,NNW,3.5,-,N/A,,Scattered Clouds,340,2013-03-14 06:53:00
9:53 PM,70.0,61.0,73,30.08,10.0,North,3.5,-,N/A,,Scattered Clouds,360,2013-03-14 07:53:00
10:53 PM,69.1,60.1,73,30.09,10.0,Calm,Calm,-,N/A,,Scattered Clouds,0,2013-03-14 08:53:00
11:53 PM,68.0,61.0,78,30.06,10.0,Variable,4.6,-,N/A,,Partly Cloudy,0,2013-03-14 09:53:00